Regional Weather Roundup
Issued by NWS Upton, NY

Current Version | Previous Version | Graphics & Text | Print | Product List | Glossary Off
Versions: 1 2 3 4 5 6 7 8 9 10 11 12 13 14 15 16 17 18 19 20 21 22 23 24 25 26 27 28 29 30 31 32 33 34 35 36 37 38 39 40 41 42 43 44 45 46 47 48 49 50

000
ASUS41 KOKX 020205
RWROKX

REGIONAL WEATHER ROUNDUP
NATIONAL WEATHER SERVICE NEW YORK NY
1000 PM EDT MON SEP 01 2014

NOTE: "FAIR" INDICATES FEW OR NO CLOUDS BELOW 12,000 FEET WITH NO
SIGNIFICANT WEATHER AND/OR OBSTRUCTIONS TO VISIBILITY.

NYZ071-072-176-178-NJZ106-104-020300-
NEW YORK CITY METRO AREA


CITY           SKY/WX    TMP DP  RH WIND       PRES   REMARKS
CENTRAL PARK   CLEAR     81  70  69 VRB3      29.97R
LAGUARDIA APRT PTCLDY    83  71  67 SW10      29.94R
KENNEDY INTL   PTCLDY    78  73  84 S8        29.95S
NEWARK/LIBERTY MOCLDY    82  72  71 S8        29.94R
BRNX BOT. GARD   N/A     79  72  78 SE1       29.95F
TETERBORO      MOCLDY    82  71  69 S6        29.93R
$$

NYZ177-179-078>081-020300-
LONG ISLAND NEW YORK

CITY           SKY/WX    TMP DP  RH WIND       PRES   REMARKS
FARMINGDALE    PTCLDY    76  72  87 SW7       29.96R
ISLIP          PTCLDY    76  72  87 SW8       29.94F
SHIRLEY        CLEAR     76  73  91 S6        29.96F
WESTHAMPTON    CLEAR     75  72  90 SW7       29.98S
MONTAUK POINT    N/A     74  72  93 SW7       29.98R
$$

NYZ052-065-067-020300-
HUDSON VALLEY

CITY           SKY/WX    TMP DP  RH WIND       PRES   REMARKS
WHITE PLAINS   CLEAR     74  72  93 CALM      29.95S
NEWBURGH       CLEAR     77  72  83 CALM      29.96R
MONTGOMERY     PTCLDY    72  70  93 CALM      29.94R
POUGHKEEPSIE   CLEAR     75  71  87 SE5       29.92S
ALBANY         CLEAR     78  69  73 S5        29.92R
$$

NJZ001-105-106-008-010-013-015-019>022-104-020300-
NEW JERSEY

CITY           SKY/WX    TMP DP  RH WIND       PRES   REMARKS
NEWARK/LIBERTY MOCLDY    82  72  71 S8        29.94R
TETERBORO      MOCLDY    82  71  69 S6        29.93R
CALDWELL       CLEAR     80  70  71 W3        29.95R
MORRISTOWN     PTCLDY    75  72  88 CALM      29.95R
SOMERVILLE     PTCLDY    76  72  87 CALM      29.94R
LINDEN         FAIR      85  75  72 CALM      29.96S HX  93
SUSSEX         CLEAR     75  72  90 CALM      29.96R
ANDOVER          N/A     72  71  97 CALM      29.98R
TRENTON        CLEAR     79  72  79 SW5       29.95R
MILLVILLE      CLEAR     77  75  93 S3        29.96S
ATLANTIC CITY  CLEAR     76  74  93 SW3       29.97R
WRIGHTSTOWN    CLEAR     75  74  95 S3        29.94S
TOMS RIVER     CLEAR     75  72  88 CALM      29.97S
BELMAR         CLEAR     77  70  78 S6        29.97R
$$

PAZ047>061-062-071-020300-
EASTERN PENNSYLVANIA

CITY           SKY/WX    TMP DP  RH WIND       PRES   REMARKS
PHILADELPHIA   MOCLDY    81  73  76 S7        29.95S
ALLENTOWN      MOCLDY    78  71  79 SW6       29.96R
SCRANTON       CLEAR     75  69  81 CALM      29.98R
$$

CTZ002-004>006-009-010-012-RIZ004-006-007-MAZ004-011-015-020300-
SOUTHERN NEW ENGLAND
 IN CT

CITY           SKY/WX    TMP DP  RH WIND       PRES   REMARKS
BRADLEY INTL   PTCLDY    78  70  76 S7        29.93S
HARTFORD       MOCLDY    77  71  82 SE3       29.94R
DANBURY        MOCLDY    76  72  87 VRB3      29.97R
WTRBRY/OXFORD  PTCLDY    73  70  88 S3        30.00R
BRIDGEPORT     MOCLDY    79  73  82 SW7       29.95S
MERIDEN        PTCLDY    74  71  91 CALM      29.95R
NEW HAVEN      CLEAR     79  72  79 SW3       29.95S
CHESTER        FAIR      73  72  94 S3        29.98R
GROTON         MOCLDY    72  71  97 SW3       29.96R
WILLIMANTIC    CLEAR     75  72  90 CALM      29.96S

 IN RI

CITY           SKY/WX    TMP DP  RH WIND       PRES   REMARKS
PROVIDENCE     PTCLDY    75  71  87 S6        29.96R
BLOCK ISLAND   CLEAR     72  68  88 SW12      29.98R
WESTERLY       PTCLDY    73  70  90 SW5       29.97S

 IN MA

CITY           SKY/WX    TMP DP  RH WIND       PRES   REMARKS
BOSTON         PTCLDY    76  69  79 SW6       29.93S
WORCESTER      CLEAR     72  69  90 SW7       29.99S
WESTFIELD      PTCLDY    72  70  93 S3        29.94S
PROVINCETOWN   PTCLDY    72  68  88 S10       29.95S
NANTUCKET      CLOUDY    69  68  96 SW5       29.98R FOG
$$

ANZ330-335-338-340-345-350-353-355-020300-
COASTAL MARINE OBSERVATIONS


STATION/POSITION TIME  SKY/WX   TEMP    WIND        PRES    VSBY  WAVE
                                AIR SEA DIR/SP/G                  HT/PER
                 (UTC)          (F)     (DEG/KT/KT) (MB)    (MI)  (FT/S)
NY HARB ENTRANCE NOT AVBL
4S FIRE IS       NOT AVBL
23SW MTP         0200                                 N/A           3/ 6
HUDSON CANYON    0200            75 74  220/ 12/ 16 1015.0          3/ 5
EXECUTION ROCKS  0200            78 75  190/  8/ 10   N/A
WESTERN LI SOUND 0200            78     180/  8/ 10   N/A           1
CENTRAL LI SOUND 0100            75 74  210/ 10/ 14   N/A           1/ 2
EASTERN LI SOUND 0100            73 70  210/  8/ 10   N/A
ROBBINS REEF     0200            80     190/ 11/ 12   N/A
$$


>>>>>>>>>>>>>>>>>>>>>>>>>>>> KEY <<<<<<<<<<<<<<<<<<<<<<<<<<<
>                                                          <
>     SKY/WX - SKY CONDITION/PRESENT WEATHER               <
>     TMP    - TEMPERATURE IN FAHRENHEIT                   <
>     DP     - DEWPOINT IN FAHRENHEIT                      <
>     RH     - RELATIVE HUMIDITY IN PERCENT                <
>     WIND   - DIRECTION AND SPEED IN MPH                  <
>     PRES   - MEAN SEA LEVEL PRESSURE IN INCHES OF HG     <
>     WCI    - WIND CHILL INDEX                            <
>     VSB    - VISIBILITY IN MILES                         <
>     HX     - HEAT INDEX                                  <
>     TC     - TEMPERATURE IN CELSIUS                      <
>     VRB    - VARIABLE WIND DIRECTION                     <
>                                                          <
>>>>>>>>>>>>>>>>>>>>>>>>>>>> KEY <<<<<<<<<<<<<<<<<<<<<<<<<<<




USA.gov is the U.S. government's official web portal to all federal, state and local government web resources and services.